EST,Max TemperatureF,Mean TemperatureF,Min TemperatureF,Max Dew PointF,MeanDew PointF,Min DewpointF,Max Humidity, Mean Humidity, Min Humidity, Max Sea Level PressureIn, Mean Sea Level PressureIn, Min Sea Level PressureIn, Max VisibilityMiles, Mean VisibilityMiles, Min VisibilityMiles, Max Wind SpeedMPH, Mean Wind SpeedMPH, Max Gust SpeedMPH,PrecipitationIn, CloudCover, Events, WindDirDegrees
2013-11-1,66,59,52,59,50,37,93,65,37,29.66,29.48,29.36,10,10,9,22,12,41,0.64,5,,213
2013-11-2,57,47,36,43,38,34,96,74,51,29.84,29.68,29.61,10,10,10,13,7,22,0.06,5,,259
2013-11-3,36,30,23,34,20,12,92,66,40,30.43,30.17,29.85,10,10,10,14,8,21,0.00,3,,328
2013-11-4,37,28,18,19,16,12,92,65,38,30.66,30.60,30.46,10,10,9,7,4,,0.00,0,,116
2013-11-5,48,38,27,30,22,12,64,52,40,30.65,30.56,30.45,10,10,10,14,9,16,0.00,0,,142
2013-11-6,59,48,36,43,36,28,82,65,47,30.45,30.21,29.92,10,10,10,12,8,17,0.00,2,,149
2013-11-7,57,46,34,52,40,25,93,74,55,29.92,29.81,29.73,10,10,5,14,8,25,0.29,7,,245
2013-11-8,43,35,27,30,22,18,85,64,43,30.09,29.93,29.84,10,10,10,16,8,24,0.00,6,,279
2013-11-9,39,33,27,30,21,18,89,67,44,30.19,30.09,29.93,10,10,9,10,6,17,0.02,5,,214
2013-11-10,46,40,34,37,33,27,96,79,62,29.92,29.79,29.71,10,10,6,20,11,24,0.06,8,,205
2013-11-11,43,39,34,34,25,21,70,59,48,30.09,29.97,29.84,10,10,10,16,9,28,0.00,7,,253
2013-11-12,41,33,25,34,17,12,85,68,50,30.22,30.09,29.86,10,10,2,15,10,25,0.03,8,,306
2013-11-13,30,25,19,18,12,5,73,53,32,30.30,30.22,30.09,10,10,10,12,6,17,0.00,6,,282
2013-11-14,45,38,30,25,18,12,59,50,40,30.08,30.05,30.03,10,10,10,13,7,20,0.00,3,,233
2013-11-15,54,43,32,21,15,10,54,37,20,30.18,30.12,30.08,10,10,9,12,7,,0.00,0,,196
2013-11-16,55,45,34,28,26,21,64,47,30,30.29,30.24,30.17,10,10,10,12,7,,0.00,1,,154
2013-11-17,54,45,36,50,41,27,86,72,58,30.25,30.07,29.72,10,10,10,25,15,30,0.00,6,,133
2013-11-18,59,51,43,55,39,27,87,67,46,29.70,29.57,29.44,10,10,7,29,13,44,0.32,7,,238
2013-11-19,41,34,27,28,18,10,75,61,47,30.34,30.01,29.69,10,10,3,18,11,29,0.00,6,,304
2013-11-20,34,27,19,18,15,10,84,66,47,30.61,30.53,30.34,10,10,10,13,6,17,0.00,0,,5
2013-11-21,43,31,18,21,14,7,84,54,24,30.61,30.50,30.34,10,10,7,9,5,,0.00,2,,124
2013-11-22,46,40,34,43,35,21,100,81,61,30.33,30.06,29.81,10,8,1,9,2,17,0.19,8,,185
2013-11-23,45,35,25,37,19,9,76,59,41,29.97,29.86,29.76,10,10,2,21,11,30,0.00,7,,273
2013-11-24,23,18,12,18,2,-8,80,60,39,30.22,30.01,29.81,10,9,1,22,13,31,0.00,4,,292
2013-11-25,27,17,7,16,4,-6,69,56,42,30.35,30.26,30.16,10,10,10,9,4,,0.00,2,,77
2013-11-26,34,30,25,30,24,9,92,64,36,30.25,30.16,29.96,10,8,2,20,5,28,0.09,8,,154
2013-11-27,45,38,30,43,34,28,100,91,82,29.96,29.49,29.36,10,7,1,28,11,44,0.66,8,,328
2013-11-28,30,21,12,27,10,1,100,73,45,30.38,30.05,29.52,10,10,3,18,9,29,0.00,3,,286
2013-11-29,21,14,7,12,6,1,92,69,45,30.71,30.56,30.38,10,10,10,12,4,,0.00,2,,89
2013-11-30,27,15,3,12,5,0,91,69,46,30.73,30.59,30.32,10,10,10,20,10,17,0.00,3,,135